Time,TemperatureF,DewpointF,PressureIn,WindDirection,WindDirectionDegrees,WindSpeedMPH,WindSpeedGustMPH,Humidity,HourlyPrecipIn,Conditions,Clouds,dailyrainin,SoftwareType,DateUTC
2013-06-29 00:00:00,68.9,54.0,29.93,WNW,293,0.0,0.0,59,0.00,,,0.00,Wunderground v.1.15,2013-06-29 06:00:00,
2013-06-29 00:30:00,67.9,53.5,29.94,West,262,0.0,0.0,60,0.00,,,0.00,Wunderground v.1.15,2013-06-29 06:30:00,
2013-06-29 01:00:00,66.9,53.5,29.94,West,278,0.0,0.0,62,0.00,,,0.00,Wunderground v.1.15,2013-06-29 07:00:00,
2013-06-29 01:30:00,67.1,53.2,29.95,WNW,289,1.0,2.0,61,0.00,,,0.00,Wunderground v.1.15,2013-06-29 07:30:00,
2013-06-29 02:00:00,66.3,52.9,29.95,WNW,288,0.0,0.0,62,0.00,,,0.00,Wunderground v.1.15,2013-06-29 08:00:00,
2013-06-29 02:30:00,65.5,53.0,29.95,WNW,283,0.0,0.0,64,0.00,,,0.00,Wunderground v.1.15,2013-06-29 08:30:00,
2013-06-29 03:00:00,65.2,52.7,29.95,WNW,283,0.0,0.0,64,0.00,,,0.00,Wunderground v.1.15,2013-06-29 09:00:00,
2013-06-29 03:30:00,64.8,52.3,29.95,WNW,284,0.0,0.0,64,0.00,,,0.00,Wunderground v.1.15,2013-06-29 09:30:00,
2013-06-29 04:00:00,63.7,52.1,29.95,West,274,0.0,0.0,66,0.00,,,0.00,Wunderground v.1.15,2013-06-29 10:00:00,
2013-06-29 04:30:00,63.1,52.0,29.95,West,275,0.0,0.0,67,0.00,,,0.00,Wunderground v.1.15,2013-06-29 10:30:00,
2013-06-29 05:00:00,62.6,51.9,29.95,West,278,0.0,1.0,68,0.00,,,0.00,Wunderground v.1.15,2013-06-29 11:00:00,
2013-06-29 05:30:00,62.7,52.0,29.96,West,274,1.0,1.0,68,0.00,,,0.00,Wunderground v.1.15,2013-06-29 11:30:00,
2013-06-29 06:00:00,62.7,52.0,29.96,WNW,282,1.0,1.0,68,0.00,,,0.00,Wunderground v.1.15,2013-06-29 12:00:00,
2013-06-29 06:30:00,64.3,53.1,29.96,West,272,0.0,0.0,67,0.00,,,0.00,Wunderground v.1.15,2013-06-29 12:30:00,
2013-06-29 07:00:00,66.0,54.3,29.96,WNW,282,0.0,0.0,66,0.00,,,0.00,Wunderground v.1.15,2013-06-29 13:00:00,
2013-06-29 07:30:00,66.8,53.8,29.96,WNW,289,0.0,0.0,63,0.00,,,0.00,Wunderground v.1.15,2013-06-29 13:30:00,
2013-06-29 08:00:00,69.1,51.2,29.97,WNW,285,0.0,0.0,53,0.00,,,0.00,Wunderground v.1.15,2013-06-29 14:00:00,
2013-06-29 08:30:00,70.1,51.7,29.97,NE,54,0.0,0.0,52,0.00,,,0.00,Wunderground v.1.15,2013-06-29 14:30:00,
2013-06-29 09:00:00,72.0,50.7,29.97,NNW,336,1.0,1.0,47,0.00,,,0.00,Wunderground v.1.15,2013-06-29 15:00:00,
2013-06-29 09:30:00,72.0,51.8,29.96,ENE,69,3.0,3.0,49,0.00,,,0.00,Wunderground v.1.15,2013-06-29 15:30:00,
2013-06-29 10:00:00,74.0,51.3,29.95,NNW,329,3.0,3.0,45,0.00,,,0.00,Wunderground v.1.15,2013-06-29 16:00:00,
2013-06-29 10:30:00,74.4,52.3,29.95,NE,39,4.0,4.0,46,0.00,,,0.00,Wunderground v.1.15,2013-06-29 16:30:00,
2013-06-29 11:00:00,75.6,52.8,29.95,WNW,282,3.0,3.0,45,0.00,,,0.00,Wunderground v.1.15,2013-06-29 17:00:00,
2013-06-29 11:30:00,76.3,50.9,29.95,NE,44,4.0,4.0,41,0.00,,,0.00,Wunderground v.1.15,2013-06-29 17:30:00,
2013-06-29 12:00:00,77.2,49.6,29.94,North,5,4.0,6.0,38,0.00,,,0.00,Wunderground v.1.15,2013-06-29 18:00:00,
2013-06-29 12:30:00,77.9,50.2,29.94,North,5,5.0,5.0,38,0.00,,,0.00,Wunderground v.1.15,2013-06-29 18:30:00,
2013-06-29 13:00:00,79.0,49.8,29.93,WNW,290,4.0,4.0,36,0.00,,,0.00,Wunderground v.1.15,2013-06-29 19:00:00,
2013-06-29 13:30:00,79.0,46.6,29.92,North,5,6.0,6.0,32,0.00,,,0.00,Wunderground v.1.15,2013-06-29 19:30:00,
2013-06-29 14:00:00,78.8,48.1,29.92,ENE,71,6.0,6.0,34,0.00,,,0.00,Wunderground v.1.15,2013-06-29 20:00:00,
2013-06-29 14:30:00,79.9,49.0,29.91,NE,40,5.0,5.0,34,0.00,,,0.00,Wunderground v.1.15,2013-06-29 20:30:00,
2013-06-29 15:00:00,79.6,46.3,29.91,NW,324,6.0,7.0,31,0.00,,,0.00,Wunderground v.1.15,2013-06-29 21:00:00,
2013-06-29 15:30:00,79.6,44.5,29.91,NNE,15,6.0,6.0,29,0.00,,,0.00,Wunderground v.1.15,2013-06-29 21:30:00,
2013-06-29 16:00:00,79.6,43.6,29.91,ENE,62,6.0,6.0,28,0.00,,,0.00,Wunderground v.1.15,2013-06-29 22:00:00,
2013-06-29 16:30:00,79.9,42.9,29.91,NNW,343,4.0,7.0,27,0.00,,,0.00,Wunderground v.1.15,2013-06-29 22:30:00,
2013-06-29 17:00:00,79.8,41.9,29.91,ENE,76,4.0,4.0,26,0.00,,,0.00,Wunderground v.1.15,2013-06-29 23:00:00,
2013-06-29 17:30:00,79.8,40.8,29.90,NW,324,3.0,3.0,25,0.00,,,0.00,Wunderground v.1.15,2013-06-29 23:30:00,
2013-06-29 18:00:00,79.6,41.7,29.90,NNW,347,3.0,3.0,26,0.00,,,0.00,Wunderground v.1.15,2013-06-30 00:00:00,
2013-06-29 18:30:00,78.6,41.8,29.89,WNW,303,2.0,2.0,27,0.00,,,0.00,Wunderground v.1.15,2013-06-30 00:30:00,
2013-06-29 19:00:00,77.9,42.2,29.89,NNE,31,2.0,2.0,28,0.00,,,0.00,Wunderground v.1.15,2013-06-30 01:00:00,
2013-06-29 19:30:00,76.8,43.0,29.90,East,79,1.0,1.0,30,0.00,,,0.00,Wunderground v.1.15,2013-06-30 01:30:00,
2013-06-29 20:00:00,76.0,44.0,29.90,NNW,327,0.0,0.0,32,0.00,,,0.00,Wunderground v.1.15,2013-06-30 02:00:00,
2013-06-29 20:30:00,73.9,44.5,29.90,NNW,329,0.0,0.0,35,0.00,,,0.00,Wunderground v.1.15,2013-06-30 02:30:00,
2013-06-29 21:00:00,72.0,46.3,29.91,North,5,0.0,0.0,40,0.00,,,0.00,Wunderground v.1.15,2013-06-30 03:00:00,
2013-06-29 21:30:00,70.4,46.8,29.92,NNW,336,0.0,0.0,43,0.00,,,0.00,Wunderground v.1.15,2013-06-30 03:30:00,
2013-06-29 22:00:00,68.9,46.7,29.93,NW,324,0.0,0.0,45,0.00,,,0.00,Wunderground v.1.15,2013-06-30 04:00:00,
2013-06-29 22:30:00,67.9,46.9,29.95,WNW,283,0.0,0.0,47,0.00,,,0.00,Wunderground v.1.15,2013-06-30 04:30:00,
2013-06-29 23:00:00,68.9,47.3,29.95,NNW,329,0.0,0.0,46,0.00,,,0.00,Wunderground v.1.15,2013-06-30 05:00:00,
2013-06-29 23:30:00,66.6,47.9,29.95,WNW,290,0.0,0.0,51,0.00,,,0.00,Wunderground v.1.15,2013-06-30 05:30:00,